Change the Weather History Date:

Monday, February 3, 2014

  Actual Average (KONT) Record (KONT)
Temperature  
Mean Temperature 47 °F 55 °F  
Max Temperature 61 °F 65 °F 84 °F (2009)
Min Temperature 33 °F 45 °F 31 °F (2002)
Degree Days  
Heating Degree Days 18 10  
Month to date heating degree days 31  
Since 1 July heating degree days 920  
Cooling Degree Days 0 0  
Month to date cooling degree days 0  
Year to date cooling degree days 3  
Moisture  
Dew Point 39 °F    
Average Humidity 74    
Maximum Humidity 100    
Minimum Humidity 39    
Precipitation  
Precipitation 0.02 in 0.08 in 0.42 in (2008)
Month to date precipitation 0.23  
Year to date precipitation 3.54  
Snow  
Snow 0.00 in - - ()
Month to date snowfall  
Year to date snowfall  
Since 1 July snowfall  
Snow Depth -    
Sea Level Pressure  
Sea Level Pressure 29.93 in    
Wind  
Wind Speed 2 mph (WSW)    
Max Wind Speed 12 mph    
Max Gust Speed -    
Visibility 9 miles    
Events Rain    
T = Trace of Precipitation, MM = Missing Value Source: NWS Daily Summary

Daily Weather History Graph

Daily Weather History Graph

Search for Another Location

Airport or City:

Trip Planner

Search our weather history database for the weather conditions in past years. The results will help you decide how hot, cold, wet, or windy it might be!

Date:

Astronomy

Feb. 03, 2014 Rise Set
Actual Time 6:45 AM PST 5:23 PM PST
Civil Twilight 6:19 AM PST 5:49 PM PST
Nautical Twilight 5:49 AM PST 6:19 PM PST
Astronomical Twilight 5:20 AM PST 6:48 PM PST
Moon 9:05 AM PST (2/3) 10:02 PM PST (2/3)
Length of Visible Light 11h 29m
Length of Day
10h 37m
Waxing Crescent, 20% of the Moon is Illuminated
Feb 3
Waxing Crescent
Feb 6
First Quarter
Feb 14
Full
Feb 22
Last Quarter
Mar 1
New

Hourly Weather History & Observations

Time (PST) Temp. Windchill Dew Point Humidity Pressure Visibility Wind Dir Wind Speed Gust Speed Precip Events Conditions
12:56 AM 45.9 °F - 41.0 °F 83% 29.96 in 10.0 mi Calm Calm - 0.02 in   Mostly Cloudy
1:43 AM 46.4 °F - 42.8 °F 87% 29.95 in 10.0 mi Calm Calm - 0.00 in Rain Light Rain
1:56 AM 45.9 °F - 43.0 °F 90% 29.94 in 10.0 mi Calm Calm - 0.00 in Rain Light Rain
2:56 AM 41.9 °F - 41.9 °F 100% 29.92 in 10.0 mi Calm Calm - 0.00 in   Partly Cloudy
3:56 AM 39.9 °F - 38.8 °F 96% 29.91 in 10.0 mi Calm Calm - N/A   Mostly Cloudy
4:56 AM 36.9 °F - 36.9 °F 100% 29.91 in 10.0 mi Calm Calm - N/A   Clear
5:56 AM 36.9 °F - 36.9 °F 100% 29.92 in 10.0 mi Calm Calm - N/A   Clear
6:34 AM 35.6 °F - 35.6 °F 100% 29.92 in 1.8 mi Calm Calm - N/A   Clear
6:41 AM 33.8 °F - 33.8 °F 100% 29.92 in 1.2 mi Calm Calm - N/A   Clear
6:43 AM 35.6 °F - 35.6 °F 100% 29.93 in 2.0 mi Calm Calm - N/A   Clear
6:56 AM 34.0 °F - 34.0 °F 100% 29.93 in 10.0 mi Calm Calm - N/A   Clear
7:56 AM 41.9 °F - 41.9 °F 100% 29.95 in 10.0 mi Calm Calm - N/A   Clear
8:56 AM 52.0 °F - 41.9 °F 69% 29.95 in 10.0 mi Calm Calm - N/A   Clear
9:56 AM 54.0 °F - 41.0 °F 62% 29.96 in 10.0 mi Variable 3.5 mph - N/A   Clear
10:56 AM 57.9 °F - 41.0 °F 53% 29.95 in 10.0 mi SW 6.9 mph - N/A   Clear
11:56 AM 59.0 °F - 38.8 °F 47% 29.93 in 10.0 mi SW 6.9 mph - N/A   Clear
12:56 PM 61.0 °F - 36.9 °F 41% 29.90 in 10.0 mi West 11.5 mph - N/A   Partly Cloudy
1:56 PM 61.0 °F - 36.0 °F 39% 29.89 in 10.0 mi West 9.2 mph - N/A   Clear
2:56 PM 61.0 °F - 36.9 °F 41% 29.89 in 10.0 mi WSW 10.4 mph - N/A   Clear
3:56 PM 59.9 °F - 39.9 °F 48% 29.89 in 10.0 mi WSW 10.4 mph - N/A   Clear
4:56 PM 56.8 °F - 41.9 °F 57% 29.91 in 10.0 mi WSW 10.4 mph - N/A   Clear
5:56 PM 54.9 °F - 41.0 °F 60% 29.92 in 10.0 mi West 8.1 mph - N/A   Clear
6:56 PM 52.9 °F - 37.9 °F 57% 29.94 in 10.0 mi West 4.6 mph - N/A   Clear
7:56 PM 52.9 °F - 37.9 °F 57% 29.95 in 10.0 mi West 5.8 mph - N/A   Clear
8:56 PM 48.9 °F - 38.8 °F 68% 29.96 in 10.0 mi Variable 3.5 mph - N/A   Clear
9:56 PM 50.9 °F - 37.9 °F 61% 29.98 in 10.0 mi Variable 4.6 mph - N/A   Clear
10:56 PM 43.9 °F 41.3 °F 36.0 °F 74% 30.00 in 10.0 mi NNE 4.6 mph - N/A   Clear
11:56 PM 39.9 °F - 34.9 °F 82% 30.00 in 10.0 mi Calm Calm - N/A   Clear